Regional Weather Roundup
Issued by NWS

Home | Current Version | Previous Version | Graphics & Text | Print | Product List | Glossary On
Versions: 1 2 3 4 5 6 7 8 9 10 11 12 13 14 15 16 17 18 19 20 21 22 23 24 25 26 27 28 29 30 31 32 33 34 35 36 37 38 39 40 41 42 43 44 45 46 47 48 49 50
862
ASUS45 KBOU 270207
RWRCO

WEATHER ROUNDUP FOR COLORADO
NATIONAL WEATHER SERVICE DENVER/BOULDER CO
800 PM MDT TUE JUL 26 2016

NOTE: "FAIR" INDICATES FEW OR NO CLOUDS BELOW 12000 FEET WITH NO
SIGNIFICANT WEATHER AND/OR OBSTRUCTIONS TO VISIBILITY.

COZ001>005-013-030-031-270300-
...NORTHWEST COLORADO...

CITY           SKY/WX    TMP DP  RH WIND       PRES   REMARKS
CRAIG          FAIR      73  47  39 CALM      30.23F
HAYDEN         FAIR      72  41  33 SE7       30.26F
MEEKER         FAIR      74  47  38 E5        30.26F
MOUNT WERNER   NOT AVBL
STEAMBOAT SPGS FAIR      69  43  39 E6        30.30F
WALDEN         FAIR      61  36  39 S12G18    30.42R
$$

COZ006>008-011-270300-
...WEST CENTRAL VALLEYS...

CITY           SKY/WX    TMP DP  RH WIND       PRES   REMARKS
GRAND JUNCTION FAIR      88  40  18 E8        30.10F
MONTROSE       MOCLDY    80  45  28 E8        30.19R
EAGLE          FAIR      77  37  24 E14       30.32R
RIFLE          FAIR      82  42  24 N6        30.18F
DELTA          FAIR      89  32  13 N16       30.14R
NUCLA          FAIR     N/A N/A N/A N3        30.22R
$$

COZ017>023-064>068-270300-
...SOUTHWEST COLORADO...

CITY           SKY/WX    TMP DP  RH WIND       PRES   REMARKS
DURANGO        LGT RAIN  69  50  50 E14G22    30.27R
CORTEZ         FAIR      85  43  22 N7        30.16R
PAGOSA SPRINGS FAIR      68  46  45 NE5       30.36S
TELLURIDE      FAIR      69  35  28 CALM      30.47R
WOLF CREEK PAS CLOUDY    46  41  81 NE9       30.71S
$$

COZ009-010-012-014-032>034-037-058>063-270300-
...CENTRAL COLORADO...

CITY           SKY/WX    TMP DP  RH WIND       PRES   REMARKS
ASPEN          FAIR      67  43  41 SW3       30.38R
BUENA VISTA    FAIR      68  39  34 SE3       30.42R
COPPER MTN     FAIR      54  34  47 N5        30.75S
BERTHOUD PASS  CLOUDY    41  28  60 N8G16     30.77S
COTTONWOOD PAS FAIR      64  34  32 E12       30.55S
GUNNISON       MOCLDY    72  43  35 N9        30.38R
KREMMLING      FAIR      68  36  30 SW3       30.39F
LEADVILLE      MOCLDY    58  33  39 N8        30.55S
MONARCH PASS   CLOUDY    50  37  62 NE8       30.82R
SALIDA         MOCLDY    69  46  43 S5G16     30.44F
SUNLIGHT       FAIR      59  36  41 MISG      30.65R
WILKERSON PASS MOCLDY    54  32  43 CALM      30.70R
$$

COZ069>075-270300-
...SAN LUIS VALLEY/SANGRE DE CRISTO MOUNTAINS...

CITY           SKY/WX    TMP DP  RH WIND       PRES   REMARKS
ALAMOSA        MOCLDY    69  48  47 SW7       30.34S
LA VETA PASS   FAIR      57  39  51 CALM      30.56S
SAGUACHE       FAIR      70  45  40 NW3       30.39S
$$

COZ035-036-038>040-270300-
...NORTHERN COLORADO FRONT RANGE...

CITY           SKY/WX    TMP DP  RH WIND       PRES   REMARKS
DENVER INTL AP MOCLDY    84  40  21 NW10      30.14R
DMNS CITY PARK   N/A     82  35  18 W14       30.13S
AURORA         MOCLDY    80  43  26 SW3       30.17R
FRONT RANGE AP MOCLDY    82  41  23 SW5       30.15S
ERIE MUNI ARPT FAIR      83  33  16 W10G18    30.12S
BOULDER MUN AP FAIR      81  41  24 W20G25    30.14S
CENTENNIAL     MOCLDY    81  37  20 NW5       30.19R
BROOMFIELD     NOT AVBL
LONGMONT       FAIR      84  38  19 S12       30.12S
$$

COZ041-046-047-076>085-087-088-270300-
...PIKES PEAK/PALMER DIVIDE AND SOUTHERN FOOTHILLS...

CITY           SKY/WX    TMP DP  RH WIND       PRES   REMARKS
COLO. SPRINGS  MOCLDY    80  39  23 SW12      30.23S
A. F. ACADEMY  CLOUDY    76  42  29 CALM      30.25R
SCHRIEVER AFB  NOT AVBL
ELLICOTT       FAIR     N/A N/A N/A W8        30.21S
FALCON         NOT AVBL
FORT CARSON    FAIR      79  40  25 W10       30.19S
LIMON          NOT AVBL
MONUMENT HILL  FAIR      70  45  40 S5        30.31S
TRINIDAD       NOT AVBL
$$

COZ042>045-048>051-090-091-270300-
...NORTHEAST COLORADO...

CITY           SKY/WX    TMP DP  RH WIND       PRES   REMARKS
GREELEY ARPT   FAIR      79  54  41 SE10      30.08F
AKRON          FAIR      76  50  40 S12       30.09F
BURLINGTON     FAIR      72  57  59 SE9       30.09F
WRAY           NOT AVBL
STERLING       FAIR      77  54  44 S8        30.03R
HOLYOKE        FAIR      79  64  61 CALM      30.01S
FORT MORGAN    FAIR      75  53  46 S3        30.08R
$$

COZ086-089-092>099-270300-
...SOUTHEAST COLORADO...

CITY           SKY/WX    TMP DP  RH WIND       PRES   REMARKS
PUEBLO         FAIR      84  48  28 NW12      30.10R
LA JUNTA       FAIR      86  61  42 E10       30.02R
LAMAR          FAIR      88  60  38 SE12      29.99R
SPRINGFIELD      N/A     82  60  47 SE14      30.07R
$$




USA.gov is the U.S. government's official web portal to all federal, state and local government web resources and services.